Probability
0 0 1 2 2 1 1 2 3 2 1 0 0 0 0 0 0 0 0 0 0 0 0 0 0 0 0 0 0 0 0 1 1 1 0 0 0 0 0 0 0 0 0
0 0 0 1 1 0 1 2 3 2 1 0 0 0 0 0 0 0 0 0 0 0 0 0 0 0 0 0 0 0 0 0 0 0 0 0 0 0 0 0 0 0 0
0 0 0 0 0 0 1 2 3 2 1 0 0 0 0 0 0 0 0 0 0 0 0 0 0 0 0 0 0 0 0 0 0 0 0 0 0 0 0 0 1 1 0
0 0 0 0 0 0 1 1 2 2 2 1 0 0 0 0 0 0 0 0 0 0 0 0 0 0 0 0 0 0 0 0 0 0 0 0 0 0 0 1 2 2 1
0 0 0 0 0 0 0 0 0 1 1 1 1 1 0 0 0 0 0 0 0 0 0 0 0 0 0 0 0 0 0 0 0 0 0 0 0 0 0 1 2 2 2
0 0 0 0 0 0 0 0 0 1 1 1 1 1 1 0 0 0 0 0 0 0 0 0 0 0 0 0 0 0 0 0 0 0 0 0 0 0 0 0 1 1 1
0 0 0 0 0 0 0 0 0 1 1 0 0 1 1 1 0 0 0 0 0 0 0 0 0 0 0 0 0 0 0 0 0 0 0 0 0 0 0 0 0 0 0
0 0 0 0 0 0 0 0 0 1 1 0 0 0 1 1 0 0 0 0 0 0 0 0 0 0 0 0 0 0 0 0 0 0 0 0 0 0 0 0 0 0 0
0 0 0 0 0 0 0 0 0 0 0 0 0 0 0 0 0 0 0 0 0 0 0 0 0 0 0 0 0 0 0 0 0 0 0 0 0 0 0 0 0 0 1
0 0 0 0 0 0 0 0 0 0 0 0 0 0 0 0 0 0 0 0 0 0 0 0 0 0 0 0 0 0 0 0 0 0 0 0 0 0 0 0 0 1 2
0 0 0 0 0 0 0 0 0 0 0 0 0 0 0 0 0 0 0 0 0 0 0 0 0 0 0 0 0 1 0 0 0 0 0 0 0 0 0 0 0 1 2
0 0 0 0 0 0 0 0 0 0 0 0 0 0 0 0 0 0 0 0 0 0 0 0 0 0 0 0 0 0 0 0 0 0 0 0 0 0 0 0 0 1 1
0 0 0 0 0 0 0 0 0 0 0 0 0 0 0 0 0 0 0 0 0 0 0 0 0 0 0 0 0 0 0 0 0 0 0 0 0 0 0 0 0 0 0
0 0 0 0 0 0 0 0 0 0 0 0 0 0 0 0 0 0 0 0 0 0 0 0 0 0 0 0 0 0 0 0 0 0 0 0 0 0 0 0 0 0 1
0 0 0 0 0 0 0 0 0 0 0 0 0 0 0 0 0 0 0 0 0 0 0 0 0 0 0 0 0 0 0 0 0 0 0 0 0 0 0 0 0 1 2
0 0 0 0 0 0 0 0 0 0 0 0 0 0 0 0 0 0 0 0 0 0 0 0 0 0 0 0 0 0 0 0 0 0 0 0 0 0 0 0 0 1 2
0 0 0 0 0 0 0 0 0 0 0 0 0 0 0 0 0 0 0 0 0 0 0 0 0 0 0 0 0 0 0 0 0 0 0 0 0 0 0 0 0 1 2
0 0 0 0 0 0 0 0 0 0 0 0 0 0 0 0 0 0 0 0 0 0 0 0 0 0 0 0 0 0 0 0 0 0 0 0 0 0 0 0 0 0 1
0 0 0 0 0 0 0 0 0 0 0 0 0 0 0 0 0 0 0 0 0 0 0 0 0 0 0 0 0 0 0 0 0 0 0 0 0 0 0 0 0 0 0
0 0 0 0 0 0 0 0 0 0 0 0 0 0 0 0 0 0 0 0 0 0 0 0 0 0 0 0 0 0 0 0 0 0 0 0 0 0 0 0 0 0 0
0 0 0 0 0 0 0 0 0 0 0 0 0 0 0 0 0 0 0 0 0 0 0 0 0 0 0 0 0 0 0 0 0 0 0 0 0 0 0 0 0 0 0
0 0 0 0 0 0 0 0 0 0 0 0 0 0 0 0 0 0 0 0 0 0 0 0 0 0 0 0 0 0 0 0 0 0 0 0 0 0 0 0 0 0 0
0 0 0 0 0 0 0 0 0 0 0 0 0 0 0 0 0 0 0 0 0 0 0 0 0 0 0 0 0 0 0 0 0 0 0 0 0 0 0 0 0 0 0
0 0 0 0 0 0 0 0 0 0 0 0 0 0 0 0 0 0 0 0 0 0 0 0 0 0 0 0 0 0 0 0 0 0 0 0 0 0 0 0 0 0 0
0 0 0 0 0 0 0 0 0 0 0 0 0 0 0 0 0 0 0 0 0 0 0 0 0 0 0 0 0 0 0 0 0 0 0 0 0 0 0 0 0 0 0
0 0 0 0 0 0 0 0 0 0 0 0 0 0 0 0 0 0 0 0 0 0 0 0 0 0 0 0 0 0 0 0 0 0 0 0 0 0 0 0 0 0 0
Wind_Speed
2 1 1 3 4 5 6 7 7 7 7 8 8 9 9 9 9 9 9 9 9 9 9 9 8 8 8 8 7 7 7 8 8 7 7 7 7 6 6 6 6 4 6
1 0 2 4 5 6 6 7 7 7 7 8 8 9 9 9 9 9 9 9 9 9 8 8 8 8 9 8 8 8 8 8 8 8 8 7 7 6 6 6 6 4 6
1 1 2 4 5 6 6 6 6 6 7 8 8 8 8 9 9 9 9 9 9 9 8 8 8 8 9 9 10 10 9 9 9 8 8 4 4 6 6 6 6 6 6
2 1 2 5 6 6 6 6 6 6 7 8 8 8 8 9 9 9 9 9 9 9 9 9 9 9 9 9 9 10 10 9 9 8 5 4 3 6 6 6 6 6 6
2 1 2 5 6 6 6 6 6 7 8 8 8 8 8 8 9 9 9 9 9 9 9 9 9 9 9 9 9 9 9 9 9 7 4 3 3 5 5 5 6 6 6
2 2 2 5 6 6 6 6 7 7 8 8 7 8 8 8 8 8 9 9 9 8 8 9 8 9 9 9 9 9 9 9 7 4 4 3 2 4 5 5 5 5 5
2 2 1 5 5 6 6 6 7 7 8 7 7 7 7 7 7 7 8 8 8 8 8 8 8 8 9 9 9 9 9 9 5 4 3 2 3 5 5 5 5 5 5
2 2 3 4 5 6 6 6 7 6 7 7 7 7 7 6 6 7 7 8 8 7 8 8 8 9 9 9 9 9 9 8 5 4 3 2 4 5 5 6 5 5 5
3 3 3 3 3 4 5 5 5 6 6 6 7 6 6 6 6 6 7 7 7 7 8 8 8 9 9 9 9 10 10 9 5 3 4 2 5 6 6 6 6 6 6
3 2 2 3 3 3 3 4 5 4 5 5 6 6 6 6 6 6 6 7 7 8 8 9 9 9 10 10 10 10 10 8 5 4 3 3 6 6 6 7 6 6 7
2 2 2 2 2 2 2 3 4 4 5 5 4 6 5 3 3 4 5 7 8 8 8 8 9 10 10 10 10 10 8 4 4 3 3 5 7 8 7 7 7 7 7
0 0 1 1 1 2 2 3 2 3 3 3 3 3 3 3 3 3 5 7 8 8 8 9 10 9 7 5 7 8 4 4 4 3 3 7 8 8 8 8 7 7 8
1 1 1 1 1 1 1 1 1 1 2 2 3 3 2 2 2 3 2 3 4 6 5 6 6 4 4 4 3 4 4 4 3 3 4 8 8 9 9 9 9 9 10
1 1 1 2 1 1 1 1 1 1 1 1 1 2 2 2 3 2 2 2 3 2 3 3 3 4 5 5 4 4 4 3 3 3 4 8 9 10 10 10 10 10 11
1 1 1 2 2 1 1 1 1 1 1 1 1 2 2 2 2 2 2 2 3 3 3 3 3 4 4 4 4 4 4 4 4 4 4 9 10 10 10 10 10 10 11
2 2 1 2 2 2 1 1 1 1 1 1 1 1 2 2 2 3 3 3 3 3 3 3 3 4 3 4 4 4 4 4 5 5 5 7 11 10 10 10 10 10 11
2 2 2 3 2 2 2 1 1 1 1 1 1 1 2 3 3 3 3 2 2 3 3 3 4 4 4 4 4 4 4 4 4 5 5 4 5 9 11 10 10 10 10
2 2 2 3 3 2 2 1 1 1 2 1 1 2 3 3 3 3 3 2 2 3 3 3 3 4 3 3 3 4 4 4 5 4 4 5 4 5 8 11 10 9 10
3 2 2 2 3 3 2 2 2 2 2 1 1 2 2 3 3 4 3 2 2 3 2 3 3 3 3 3 3 4 4 4 4 4 5 5 4 5 4 8 11 10 9
2 2 3 3 3 3 2 2 2 2 2 2 1 1 2 3 4 4 3 2 2 3 2 2 3 3 2 2 4 4 4 4 4 4 4 4 4 5 5 5 5 7 10
2 2 2 3 3 3 2 2 1 1 1 1 1 1 2 3 3 3 3 3 2 2 2 2 3 3 2 1 2 3 3 4 5 4 4 4 5 5 5 5 4 4 4
2 2 2 3 3 3 2 2 1 2 1 1 0 1 1 2 3 3 3 3 2 2 3 2 3 2 1 1 2 2 2 4 4 4 3 4 4 4 5 5 5 5 4
3 3 3 4 3 3 3 3 2 2 2 1 1 1 0 2 2 3 3 3 2 3 3 2 2 3 2 1 1 2 3 1 1 3 3 3 3 3 3 3 4 4 4
4 3 3 3 3 3 4 4 3 2 2 2 1 1 0 1 2 2 2 2 2 2 2 2 2 2 3 1 1 1 1 3 3 0 2 2 3 3 3 3 3 3 4
3 3 3 3 3 3 3 4 4 2 2 1 1 1 1 0 1 2 3 2 2 2 2 2 2 2 2 2 2 1 2 2 2 2 0 2 2 2 2 2 2 2 3
2 2 2 3 3 3 3 4 4 4 3 2 1 1 1 1 1 2 2 2 2 2 2 2 2 3 2 2 2 2 2 2 2 2 2 1 1 2 2 1 1 1 1
Wind_Direction
290 273 239 121 112 106 105 102 97 93 93 95 97 97 96 94 94 94 92 89 87 87 84 80 77 78 78 76 77 79 84 82 77 74 72 74 73 75 80 85 87 77 88
196 238 129 120 112 109 104 102 101 98 97 98 99 98 98 96 94 95 92 88 86 87 85 82 79 78 76 72 72 75 80 78 74 71 66 62 66 70 75 80 87 87 87
107 87 121 116 109 106 106 103 101 99 100 100 102 99 97 96 96 94 90 86 85 87 83 82 79 78 77 74 73 75 76 73 73 69 58 38 44 66 71 75 78 79 83
121 110 121 110 107 103 105 104 102 102 102 102 101 100 99 97 96 93 89 85 82 84 82 78 76 77 78 77 75 76 74 72 72 67 53 36 31 62 70 73 78 79 82
90 85 119 116 112 109 107 105 103 104 106 104 101 99 99 97 96 93 89 84 81 80 79 74 73 75 77 75 75 75 74 72 68 58 45 34 28 61 72 75 77 79 80
81 71 121 123 117 112 107 104 106 105 102 100 99 98 97 98 96 94 91 87 82 80 78 76 73 76 75 76 76 74 73 69 60 47 40 29 29 62 74 77 77 80 81
83 66 95 116 114 116 114 109 108 106 104 102 98 98 95 95 96 95 94 91 84 81 77 74 73 75 76 77 76 73 71 69 58 46 36 26 38 58 68 76 79 82 84
90 71 62 103 110 107 105 103 102 106 104 101 96 95 93 92 92 93 91 89 85 82 77 72 73 77 75 74 72 70 67 63 56 48 34 26 53 61 70 75 79 84 85
77 76 59 54 70 90 97 100 101 96 95 96 91 85 83 83 84 86 86 84 84 80 76 72 69 74 72 72 68 66 62 57 44 31 34 32 55 63 71 75 78 79 80
67 68 66 55 53 55 59 76 84 89 90 86 82 79 73 69 68 74 73 78 80 76 72 70 69 74 73 70 66 62 57 49 33 25 15 41 58 65 76 78 76 77 79
77 55 63 59 46 43 45 55 57 61 62 61 61 64 59 42 42 57 71 75 74 71 69 68 67 70 67 65 62 57 49 36 27 20 12 52 64 71 77 77 76 76 77
177 115 89 76 55 41 43 50 39 48 46 48 49 49 45 39 41 53 56 67 67 65 65 65 64 63 59 52 53 51 39 31 27 16 30 55 66 70 72 72 75 76 74
204 190 140 136 89 68 47 55 43 43 46 50 53 57 57 48 46 43 41 45 51 56 52 53 54 53 56 54 51 46 41 35 22 14 27 53 67 69 69 71 73 73 69
137 190 170 150 119 97 82 72 69 55 58 62 57 65 73 66 57 54 53 44 48 53 58 53 58 57 57 55 53 50 45 37 25 15 27 50 65 69 70 72 73 73 70
151 194 189 157 142 124 105 95 92 85 87 89 67 72 92 95 87 74 65 54 55 61 65 61 62 63 61 58 53 53 44 40 31 24 19 41 55 64 70 74 76 76 75
187 198 180 158 155 143 136 127 97 79 84 80 78 90 100 100 95 88 79 65 58 63 70 73 73 71 63 61 54 48 43 41 39 35 29 28 37 48 58 64 68 73 75
189 189 172 166 150 145 145 137 98 76 90 92 92 92 98 103 102 101 94 80 67 68 74 72 65 63 62 57 49 41 43 40 40 37 32 28 26 34 42 53 60 68 71
159 162 183 165 147 145 137 118 98 82 88 93 94 91 95 100 104 99 95 86 78 81 80 80 69 69 59 54 48 35 34 36 37 37 37 33 29 27 26 40 51 61 68
166 165 158 148 149 144 127 101 85 76 72 77 88 93 103 108 109 104 100 89 89 89 79 91 72 80 78 65 60 48 33 33 29 37 37 32 32 32 26 28 38 48 59
152 150 151 143 138 130 111 89 70 60 52 57 77 96 118 123 126 119 118 117 115 109 89 84 86 69 81 77 73 58 39 32 33 33 32 34 33 35 35 32 27 30 43
148 147 153 147 147 135 118 118 115 92 51 54 86 108 120 121 126 129 133 134 129 122 123 117 104 88 72 68 77 51 29 35 43 33 26 34 34 33 38 35 31 27 24
188 185 171 167 161 162 147 137 135 132 126 108 54 74 109 129 138 140 140 148 146 130 116 120 124 114 85 61 99 89 32 8 15 28 26 32 25 26 34 37 34 32 28
202 198 193 187 177 166 141 109 89 69 49 41 37 44 62 132 141 135 143 150 149 146 153 160 151 138 142 66 70 124 134 192 326 354 17 28 20 26 20 25 35 31 29
213 204 199 184 176 167 153 146 148 154 170 209 191 164 110 124 140 140 144 148 155 159 161 176 159 145 138 140 66 55 112 146 141 16 344 359 11 23 14 21 25 24 23
206 196 188 175 173 166 166 167 158 159 178 161 131 133 129 126 151 157 166 166 163 167 173 176 155 153 154 154 152 136 95 70 95 136 214 325 348 346 359 6 12 9 10
190 181 168 168 181 173 172 176 168 172 173 157 174 180 189 196 204 195 180 179 178 175 179 186 172 168 171 158 153 151 152 148 161 146 162 227 288 304 320 343 351 337 346